Regional Weather Roundup
Issued by NWS

Home | Current Version | Previous Version | Text Only | Print | Product List | Glossary On
Versions: 1 2 3 4 5 6 7 8 9 10 11 12 13 14 15 16 17 18 19 20 21 22 23 24 25 26 27 28 29 30 31 32 33 34 35 36 37 38 39 40 41 42 43 44 45 46 47 48 49 50
000
ASUS43 KDTX 222010
RWRMI
MICHIGAN HOURLY REGIONAL WEATHER ROUNDUP
NATIONAL WEATHER SERVICE DETROIT/PONTIAC MI
400 PM EDT FRI SEP 22 2017

NOTE: "FAIR" INDICATES FEW OR NO CLOUDS BELOW 12,000 FEET WITH NO
SIGNIFICANT WEATHER AND/OR OBSTRUCTION TO VISIBILITY.

MIZ047>049-052>055-059>063-066>070-074>076-081>083-222100-
SOUTHEAST LOWER MICHIGAN

CITY           SKY/WX    TMP DP  RH WIND       PRES   REMARKS
ADRIAN         SUNNY     91  66  43 SE5       30.08F HX  93
ALMA           MOSUNNY   94  58  30 SW9       30.06F HX  93
ANN ARBOR      MOSUNNY   91  69  48 E8        30.08F HX  96
BAD AXE        SUNNY     89  65  45 CALM      30.08S HX  91
CARO           SUNNY     91  65  42 CALM      30.06F HX  93
DETROIT CITY   SUNNY     87  68  52 SE7       30.09F HX  90
DETROIT        MOSUNNY   88  70  55 VRB3      30.09F HX  93
FLINT          MOSUNNY   91  66  43 VRB6      30.07F HX  93
GROSSE ILE     SUNNY     78  69  73 S6        30.08F
HILLSDALE      SUNNY     90  64  43 S3        30.09F HX  91
HOWELL         PTSUNNY   91  65  42 SE5       30.09S HX  93

CITY           SKY/WX    TMP DP  RH WIND       PRES   REMARKS
JACKSON        PTSUNNY   91  64  40 CALM      30.08F HX  92
LAMBERTVILLE   SUNNY     86  68  53 E6        30.08F
LANSING        MOSUNNY   93  65  39 E5        30.08F HX  95
LAPEER         FAIR      90  64  42 CALM      30.08F HX  91
MASON          MOSUNNY   90  66  45 E6        30.08S HX  92
MONROE         SUNNY     86  63  46 E6        30.08F
MT. CLEMENS    MOSUNNY   85  69  57 SE7       30.08F
PONTIAC        MOSUNNY   89  65  44 S6        30.08F HX  91
PORT HOPE        N/A     76  69  79 SE12      30.06F
PORT HURON     SUNNY     90  68  48 SE3       30.09S HX  93
TRI CITIES     MOSUNNY   93  68  43 S9        30.06F HX  97
MIDLAND        FAIR      93  66  40 S5        30.05F HX  96
TROY           SUNNY     90  65  43 SE3       30.10F HX  92
SAGINAW HB     MOSUNNY   90  66  45 SW7       30.06S HX  92
$$
MIZ043>046-050>051-056>058-064>065-071>073-077>080-222100-
SOUTHWEST LOWER MICHIGAN

CITY           SKY/WX    TMP DP  RH WIND       PRES   REMARKS
BATTLE CREEK   MOSUNNY   92  65  40 VRB3      30.09F HX  94
BENTON HARBOR  SUNNY     90  65  43 W8        30.06F HX  92
BIG RAPIDS     SUNNY     91  62  37 W8        30.06F HX  91
COLDWATER      SUNNY     91  61  36 CALM      30.08F HX  90
FREMONT        FAIR      92  62  35 W12       30.06S HX  92
HOLLAND        SUNNY     92  64  39 SW8       30.07F HX  93
GRAND RAPIDS   MOSUNNY   92  64  39 W6        30.06F HX  93
IONIA          FAIR      93  61  34 SW9       30.06F HX  93
KALAMAZOO      SUNNY     92  62  36 VRB3      30.07F HX  92
LUDINGTON      SUNNY     86  68  54 SW8       30.04F
MARSHALL       SUNNY     92  65  40 NW6       30.08S HX  94
MOUNT PLEASANT SUNNY     96  62  31 SW7       30.05F HX  96
MUSKEGON       MOSUNNY   89  66  46 W10       30.07S HX  91
SOUTH HAVEN    SUNNY     91  64  40 NW7       30.06F HX  92
$$
MIZ016>042-222100-
NORTHERN LOWER MICHIGAN

CITY           SKY/WX    TMP DP  RH WIND       PRES   REMARKS
ALPENA         MOSUNNY   92  71  50 S10       30.03F HX  98
BEAVER ISLAND  CLOUDY    82  68  63 SW15G21   30.04R
BELLAIRE       SUNNY     91  64  39 SW3       30.02S HX  92
CADILLAC       SUNNY     94  60  32 SW10      30.07F HX  93
CHARLEVOIX     MOSUNNY   91  66  44 SW10      30.04S HX  93
FRANKFORT      MOSUNNY   84  69  61 SW6       30.03S
GAYLORD        SUNNY     89  63  41 SW16      30.06F HX  90
GRAYLING       SUNNY     91  62  37 SW8       30.06F HX  92
HARBOR SPRINGS SUNNY     88  66  48 SW5       30.01S HX  90
HOUGHTON LAKE  SUNNY     90  65  43 SW9       30.08S HX  92
MANISTEE       SUNNY     90  69  50 S8        30.03S HX  94
OSCODA         SUNNY     88  68  51 S12G22    30.05F HX  92
PELLSTON       CLOUDY    91  67  44 SW12G20   30.01F HX  94
ROGERS CITY    PTSUNNY   92  68  45 SW8       30.02F HX  95
TRAVERSE CITY  PTSUNNY   93  63  36 SW7       30.00F HX  94
$$
MIZ007>008-015-222100-
EASTERN UPPER MICHIGAN

CITY           SKY/WX    TMP DP  RH WIND       PRES   REMARKS
KINROSS        MOSUNNY   85  71  63 SW10      30.00F HX  90
MACKINAC ISLAN CLOUDY    82  66  58 SW7       30.02R
NEWBERRY       CLOUDY    77  73  86 W12       30.06R
S. S. MARIE    CLOUDY    85  69  58 SW9       29.98F
MUNISING         N/A     67  67 100 S7        30.04F
$$
MIZ004>006-011>014-085-222100-
CENTRAL UPPER MICHIGAN

CITY           SKY/WX    TMP DP  RH WIND       PRES   REMARKS
MANISTIQUE     RAIN      66  60  81 W6G25     30.12R
ESCANABA       RAIN      66  66 100 SE3       30.07R FOG
MENOMINEE      CLOUDY    78  63  59 N12       30.06R
SAWYER-GWINN   TSTM      66  64  94 MISG      30.05R
$$
MIZ001>003-009>011-084-222100-
WESTERN UPPER MICHIGAN

CITY           SKY/WX    TMP DP  RH WIND       PRES   REMARKS
IRON MOUNTAIN  TSTM      66  63  90 SE6       30.01F
HOUGHTON       CLOUDY    68  63  84 CALM      29.88F
COPPER HARBOR    N/A     66  63  90 SE6       29.86F
IRONWOOD       CLOUDY    72  65  78 S10G21    29.92S
$$

ABBREVIATIONS USED IN REMARKS
   TC - TEMPERATURE IN CELSIUS
  WCI - WIND CHILL INDEX
   HX - HEAT INDEX
  VSB - VISIBILITY





USA.gov is the U.S. government's official web portal to all federal, state and local government web resources and services.